Time,TemperatureF,DewpointF,PressureIn,WindDirection,WindDirectionDegrees,WindSpeedMPH,WindSpeedGustMPH,Humidity,HourlyPrecipIn,Conditions,Clouds,dailyrainin,SoftwareType,DateUTC
2013-08-06 00:04:00,54.0,51.1,30.20,SW,225,2.0,2.0,90,0.00,,,0.00,Weather View 32 v70,2013-08-06 04:04:00,
2013-08-06 00:10:00,53.0,50.1,30.20,SW,225,0.0,2.0,90,0.00,,,0.00,Weather View 32 v70,2013-08-06 04:10:00,
2013-08-06 00:15:00,54.0,51.4,30.22,SW,225,0.0,2.0,91,0.00,,,0.00,Weather View 32 v70,2013-08-06 04:15:00,
2013-08-06 00:28:00,53.0,50.7,30.22,SSW,202,2.0,2.0,92,0.00,,,0.00,Weather View 32 v70,2013-08-06 04:28:00,
2013-08-06 00:33:00,53.0,50.7,30.20,SSE,157,3.0,3.0,92,0.00,,,0.00,Weather View 32 v70,2013-08-06 04:33:00,
2013-08-06 00:40:00,53.0,50.4,30.20,SSE,157,0.0,3.0,91,0.00,,,0.00,Weather View 32 v70,2013-08-06 04:40:00,
2013-08-06 00:45:00,53.0,50.1,30.20,SSE,157,1.0,3.0,90,0.00,,,0.00,Weather View 32 v70,2013-08-06 04:45:00,
2013-08-06 00:50:00,52.0,49.2,30.20,SSE,157,1.0,3.0,90,0.00,,,0.00,Weather View 32 v70,2013-08-06 04:50:00,
2013-08-06 00:55:00,52.0,49.2,30.20,SSE,157,0.0,3.0,90,0.00,,,0.00,Weather View 32 v70,2013-08-06 04:55:00,
2013-08-06 01:05:00,52.0,49.7,30.19,South,180,0.0,3.0,92,0.00,,,0.00,Weather View 32 v70,2013-08-06 05:05:00,
2013-08-06 01:13:00,52.0,50.0,30.19,South,180,0.0,3.0,93,0.00,,,0.00,Weather View 32 v70,2013-08-06 05:13:00,
2013-08-06 01:18:00,52.0,50.0,30.19,ESE,112,0.0,3.0,93,0.00,,,0.00,Weather View 32 v70,2013-08-06 05:18:00,
2013-08-06 01:23:00,51.0,48.8,30.19,ESE,112,0.0,3.0,92,0.00,,,0.00,Weather View 32 v70,2013-08-06 05:23:00,
2013-08-06 01:29:00,51.0,48.8,30.19,ESE,112,0.0,3.0,92,0.00,,,0.00,Weather View 32 v70,2013-08-06 05:29:00,
2013-08-06 01:34:00,52.0,49.7,30.19,East,90,1.0,3.0,92,0.00,,,0.00,Weather View 32 v70,2013-08-06 05:34:00,
2013-08-06 01:39:00,52.0,49.4,30.19,East,90,0.0,2.0,91,0.00,,,0.00,Weather View 32 v70,2013-08-06 05:39:00,
2013-08-06 01:48:00,53.0,49.5,30.19,SE,135,3.0,3.0,88,0.00,,,0.00,Weather View 32 v70,2013-08-06 05:48:00,
2013-08-06 01:53:00,52.0,48.5,30.19,SSE,157,0.0,3.0,88,0.00,,,0.00,Weather View 32 v70,2013-08-06 05:53:00,
2013-08-06 02:01:00,52.0,48.5,30.20,SSE,157,0.0,3.0,88,0.00,,,0.00,Weather View 32 v70,2013-08-06 06:01:00,
2013-08-06 02:09:00,51.0,48.2,30.19,SSW,202,3.0,3.0,90,0.00,,,0.00,Weather View 32 v70,2013-08-06 06:09:00,
2013-08-06 02:14:00,51.0,48.5,30.19,SSW,202,4.0,4.0,91,0.00,,,0.00,Weather View 32 v70,2013-08-06 06:14:00,
2013-08-06 02:22:00,52.0,49.7,30.19,SSE,157,5.0,5.0,92,0.00,,,0.00,Weather View 32 v70,2013-08-06 06:22:00,
2013-08-06 02:31:00,52.0,49.2,30.19,SE,135,0.0,5.0,90,0.00,,,0.00,Weather View 32 v70,2013-08-06 06:31:00,
2013-08-06 02:37:00,51.0,48.2,30.19,SSW,202,3.0,5.0,90,0.00,,,0.00,Weather View 32 v70,2013-08-06 06:37:00,
2013-08-06 02:44:00,51.0,48.8,30.19,SSW,202,0.0,5.0,92,0.00,,,0.00,Weather View 32 v70,2013-08-06 06:44:00,
2013-08-06 02:49:00,50.0,47.5,30.19,SSW,202,2.0,5.0,91,0.00,,,0.00,Weather View 32 v70,2013-08-06 06:49:00,
2013-08-06 02:54:00,50.0,47.8,30.19,SSW,202,1.0,5.0,92,0.00,,,0.00,Weather View 32 v70,2013-08-06 06:54:00,
2013-08-06 02:59:00,50.0,48.1,30.19,SSW,202,0.0,5.0,93,0.00,,,0.00,Weather View 32 v70,2013-08-06 06:59:00,
2013-08-06 03:04:00,50.0,48.6,30.19,SSW,202,0.0,5.0,95,0.00,,,0.00,Weather View 32 v70,2013-08-06 07:04:00,
2013-08-06 03:09:00,49.0,47.1,30.18,SSW,202,1.0,5.0,93,0.00,,,0.00,Weather View 32 v70,2013-08-06 07:09:00,
2013-08-06 03:14:00,50.0,48.3,30.19,SSW,202,2.0,5.0,94,0.00,,,0.00,Weather View 32 v70,2013-08-06 07:14:00,
2013-08-06 03:19:00,49.0,47.6,30.19,SSW,202,0.0,5.0,95,0.00,,,0.00,Weather View 32 v70,2013-08-06 07:19:00,
2013-08-06 03:24:00,50.0,48.6,30.18,SSW,202,0.0,5.0,95,0.00,,,0.00,Weather View 32 v70,2013-08-06 07:24:00,
2013-08-06 03:29:00,49.0,47.6,30.18,SSW,202,0.0,3.0,95,0.00,,,0.00,Weather View 32 v70,2013-08-06 07:29:00,
2013-08-06 03:34:00,49.0,47.6,30.18,SSW,202,0.0,3.0,95,0.00,,,0.00,Weather View 32 v70,2013-08-06 07:34:00,
2013-08-06 03:39:00,49.0,47.6,30.18,SSW,202,0.0,3.0,95,0.00,,,0.00,Weather View 32 v70,2013-08-06 07:39:00,
2013-08-06 03:44:00,49.0,47.9,30.18,SSW,202,0.0,2.0,96,0.00,,,0.00,Weather View 32 v70,2013-08-06 07:44:00,
2013-08-06 03:49:00,49.0,47.9,30.18,SSW,202,0.0,2.0,96,0.00,,,0.00,Weather View 32 v70,2013-08-06 07:49:00,
2013-08-06 03:54:00,49.0,47.9,30.19,SSW,202,3.0,3.0,96,0.00,,,0.00,Weather View 32 v70,2013-08-06 07:54:00,
2013-08-06 03:59:00,49.0,47.9,30.19,SSW,202,1.0,5.0,96,0.00,,,0.00,Weather View 32 v70,2013-08-06 07:59:00,
2013-08-06 04:04:00,49.0,48.2,30.18,ENE,67,3.0,5.0,97,0.00,,,0.00,Weather View 32 v70,2013-08-06 08:04:00,
2013-08-06 04:09:00,49.0,48.7,30.18,East,90,0.0,5.0,99,0.00,,,0.00,Weather View 32 v70,2013-08-06 08:09:00,
2013-08-06 04:14:00,49.0,48.2,30.19,East,90,0.0,5.0,97,0.00,,,0.00,Weather View 32 v70,2013-08-06 08:14:00,
2013-08-06 04:21:00,49.0,48.5,30.19,SSW,202,2.0,6.0,98,0.00,,,0.00,Weather View 32 v70,2013-08-06 08:21:00,
2013-08-06 04:26:00,49.0,48.7,30.19,SSW,202,0.0,6.0,99,0.00,,,0.00,Weather View 32 v70,2013-08-06 08:26:00,
2013-08-06 04:31:00,48.0,47.7,30.19,SSE,157,0.0,6.0,99,0.00,,,0.00,Weather View 32 v70,2013-08-06 08:31:00,
2013-08-06 04:36:00,48.0,47.7,30.19,SSE,157,0.0,6.0,99,0.00,,,0.00,Weather View 32 v70,2013-08-06 08:36:00,
2013-08-06 04:41:00,48.0,47.2,30.19,SSE,157,2.0,6.0,97,0.00,,,0.00,Weather View 32 v70,2013-08-06 08:41:00,
2013-08-06 04:46:00,48.0,47.2,30.19,SSE,157,0.0,6.0,97,0.00,,,0.00,Weather View 32 v70,2013-08-06 08:46:00,
2013-08-06 04:51:00,48.0,47.5,30.18,SSE,157,0.0,6.0,98,0.00,,,0.00,Weather View 32 v70,2013-08-06 08:51:00,
2013-08-06 04:56:00,48.0,47.7,30.18,SSE,157,0.0,6.0,99,0.00,,,0.00,Weather View 32 v70,2013-08-06 08:56:00,
2013-08-06 05:01:00,48.0,47.7,30.18,SSE,157,0.0,6.0,99,0.00,,,0.00,Weather View 32 v70,2013-08-06 09:01:00,
2013-08-06 05:07:00,47.0,46.7,30.19,SSE,157,0.0,6.0,99,0.00,,,0.00,Weather View 32 v70,2013-08-06 09:07:00,
2013-08-06 05:12:00,47.0,47.0,30.19,SSE,157,0.0,6.0,100,0.00,,,0.00,Weather View 32 v70,2013-08-06 09:12:00,
2013-08-06 05:17:00,47.0,46.7,30.18,SSE,157,0.0,6.0,99,0.00,,,0.00,Weather View 32 v70,2013-08-06 09:17:00,
2013-08-06 05:22:00,47.0,46.7,30.18,SSE,157,0.0,2.0,99,0.00,,,0.00,Weather View 32 v70,2013-08-06 09:22:00,
2013-08-06 05:27:00,46.0,45.7,30.18,SSE,157,0.0,2.0,99,0.00,,,0.00,Weather View 32 v70,2013-08-06 09:27:00,
2013-08-06 05:32:00,47.0,47.0,30.19,SSE,157,0.0,2.0,100,0.00,,,0.00,Weather View 32 v70,2013-08-06 09:32:00,
2013-08-06 05:37:00,47.0,47.0,30.19,SSE,157,0.0,2.0,100,0.00,,,0.00,Weather View 32 v70,2013-08-06 09:37:00,
2013-08-06 05:42:00,47.0,47.0,30.19,SSE,157,0.0,2.0,100,0.00,,,0.00,Weather View 32 v70,2013-08-06 09:42:00,
2013-08-06 05:47:00,47.0,46.7,30.17,SSE,157,2.0,2.0,99,0.00,,,0.00,Weather View 32 v70,2013-08-06 09:47:00,
2013-08-06 05:52:00,48.0,47.7,30.18,South,180,2.0,3.0,99,0.00,,,0.00,Weather View 32 v70,2013-08-06 09:52:00,
2013-08-06 05:57:00,48.0,47.7,30.20,South,180,1.0,3.0,99,0.00,,,0.00,Weather View 32 v70,2013-08-06 09:57:00,
2013-08-06 06:02:00,48.0,47.7,30.21,South,180,2.0,3.0,99,0.00,,,0.00,Weather View 32 v70,2013-08-06 10:02:00,
2013-08-06 06:07:00,48.0,47.7,30.21,South,180,0.0,3.0,99,0.00,,,0.00,Weather View 32 v70,2013-08-06 10:07:00,
2013-08-06 06:12:00,48.0,47.7,30.22,South,180,0.0,3.0,99,0.00,,,0.00,Weather View 32 v70,2013-08-06 10:12:00,
2013-08-06 06:17:00,48.0,48.0,30.22,South,180,0.0,3.0,100,0.00,,,0.00,Weather View 32 v70,2013-08-06 10:17:00,
2013-08-06 06:22:00,49.0,48.7,30.22,South,180,0.0,3.0,99,0.00,,,0.00,Weather View 32 v70,2013-08-06 10:22:00,
2013-08-06 06:27:00,49.0,48.7,30.22,South,180,0.0,3.0,99,0.00,,,0.00,Weather View 32 v70,2013-08-06 10:27:00,
2013-08-06 06:32:00,49.0,48.7,30.22,SSW,202,0.0,3.0,99,0.00,,,0.00,Weather View 32 v70,2013-08-06 10:32:00,
2013-08-06 06:37:00,50.0,50.0,30.22,SSW,202,0.0,3.0,100,0.00,,,0.00,Weather View 32 v70,2013-08-06 10:37:00,
2013-08-06 06:42:00,52.0,52.0,30.24,SSW,202,0.0,3.0,100,0.00,,,0.00,Weather View 32 v70,2013-08-06 10:42:00,
2013-08-06 06:47:00,52.0,52.0,30.25,SSW,202,1.0,3.0,100,0.00,,,0.00,Weather View 32 v70,2013-08-06 10:47:00,
2013-08-06 06:52:00,53.0,53.0,30.29,SSW,202,2.0,3.0,100,0.00,,,0.00,Weather View 32 v70,2013-08-06 10:52:00,
2013-08-06 06:57:00,54.0,54.0,30.29,SSW,202,0.0,3.0,100,0.00,,,0.00,Weather View 32 v70,2013-08-06 10:57:00,
2013-08-06 07:02:00,55.0,54.7,30.30,SSW,202,2.0,3.0,99,0.00,,,0.00,Weather View 32 v70,2013-08-06 11:02:00,
2013-08-06 07:07:00,56.0,55.4,30.30,SSW,202,0.0,4.0,98,0.00,,,0.00,Weather View 32 v70,2013-08-06 11:07:00,
2013-08-06 07:12:00,57.0,56.7,30.31,SSW,202,2.0,4.0,99,0.00,,,0.00,Weather View 32 v70,2013-08-06 11:12:00,
2013-08-06 07:17:00,58.0,56.3,30.32,South,180,2.0,4.0,94,0.00,,,0.00,Weather View 32 v70,2013-08-06 11:17:00,
2013-08-06 07:22:00,58.0,56.3,30.32,South,180,4.0,4.0,94,0.00,,,0.00,Weather View 32 v70,2013-08-06 11:22:00,
2013-08-06 07:27:00,59.0,58.1,30.35,South,180,3.0,5.0,97,0.00,,,0.00,Weather View 32 v70,2013-08-06 11:27:00,
2013-08-06 07:32:00,60.0,58.6,30.36,South,180,0.0,5.0,95,0.00,,,0.00,Weather View 32 v70,2013-08-06 11:32:00,
2013-08-06 07:37:00,61.0,58.7,30.36,South,180,1.0,5.0,92,0.00,,,0.00,Weather View 32 v70,2013-08-06 11:37:00,
2013-08-06 07:42:00,62.0,57.4,30.37,SSW,202,4.0,5.0,85,0.00,,,0.00,Weather View 32 v70,2013-08-06 11:42:00,
2013-08-06 07:48:00,62.0,57.8,30.37,SW,225,5.0,6.0,86,0.00,,,0.00,Weather View 32 v70,2013-08-06 11:48:00,
2013-08-06 07:53:00,62.0,55.4,30.37,SSW,202,6.0,6.0,79,0.00,,,0.00,Weather View 32 v70,2013-08-06 11:53:00,
2013-08-06 07:58:00,62.0,54.0,30.38,WSW,247,6.0,6.0,75,0.00,,,0.00,Weather View 32 v70,2013-08-06 11:58:00,
2013-08-06 08:03:00,62.0,53.6,30.38,WSW,247,2.0,7.0,74,0.00,,,0.00,Weather View 32 v70,2013-08-06 12:03:00,
2013-08-06 08:08:00,62.0,52.1,30.38,SW,225,6.0,7.0,70,0.00,,,0.00,Weather View 32 v70,2013-08-06 12:08:00,
2013-08-06 08:13:00,63.0,52.2,30.39,SSW,202,5.0,7.0,68,0.00,,,0.00,Weather View 32 v70,2013-08-06 12:13:00,
2013-08-06 08:18:00,64.0,52.0,30.38,NW,315,2.0,7.0,65,0.00,,,0.00,Weather View 32 v70,2013-08-06 12:18:00,
2013-08-06 08:23:00,64.0,52.0,30.40,West,270,1.0,7.0,65,0.00,,,0.00,Weather View 32 v70,2013-08-06 12:23:00,
2013-08-06 08:28:00,66.0,52.6,30.40,NW,315,1.0,7.0,62,0.00,,,0.00,Weather View 32 v70,2013-08-06 12:28:00,
2013-08-06 08:33:00,67.0,52.2,30.40,SW,225,4.0,7.0,59,0.00,,,0.00,Weather View 32 v70,2013-08-06 12:33:00,
2013-08-06 08:39:00,66.0,51.2,30.42,SW,225,5.0,7.0,59,0.00,,,0.00,Weather View 32 v70,2013-08-06 12:39:00,
2013-08-06 08:44:00,67.0,52.2,30.42,NNE,22,3.0,7.0,59,0.00,,,0.00,Weather View 32 v70,2013-08-06 12:44:00,
2013-08-06 08:49:00,67.0,51.2,30.42,NW,315,7.0,7.0,57,0.00,,,0.00,Weather View 32 v70,2013-08-06 12:49:00,
2013-08-06 08:54:00,66.0,51.2,30.43,NNW,337,4.0,10.0,59,0.00,,,0.00,Weather View 32 v70,2013-08-06 12:54:00,
2013-08-06 08:59:00,67.0,52.2,30.42,NW,315,7.0,10.0,59,0.00,,,0.00,Weather View 32 v70,2013-08-06 12:59:00,
2013-08-06 09:04:00,67.0,51.2,30.42,North,360,1.0,10.0,57,0.00,,,0.00,Weather View 32 v70,2013-08-06 13:04:00,
2013-08-06 09:09:00,67.0,51.2,30.42,NNE,22,3.0,10.0,57,0.00,,,0.00,Weather View 32 v70,2013-08-06 13:09:00,
2013-08-06 09:14:00,69.0,52.1,30.43,NNE,22,2.0,10.0,55,0.00,,,0.00,Weather View 32 v70,2013-08-06 13:14:00,
2013-08-06 09:19:00,70.0,52.0,30.42,NW,315,0.0,10.0,53,0.00,,,0.00,Weather View 32 v70,2013-08-06 13:19:00,
2013-08-06 09:24:00,70.0,51.0,30.43,West,270,3.0,10.0,51,0.00,,,0.00,Weather View 32 v70,2013-08-06 13:24:00,
2013-08-06 09:29:00,68.0,50.2,30.43,NW,315,8.0,10.0,53,0.00,,,0.00,Weather View 32 v70,2013-08-06 13:29:00,
2013-08-06 09:34:00,70.0,52.0,30.43,NNW,337,3.0,10.0,53,0.00,,,0.00,Weather View 32 v70,2013-08-06 13:34:00,
2013-08-06 09:39:00,72.0,51.7,30.43,NNE,22,5.0,10.0,49,0.00,,,0.00,Weather View 32 v70,2013-08-06 13:39:00,
2013-08-06 09:44:00,73.0,50.9,30.44,West,270,1.0,10.0,46,0.00,,,0.00,Weather View 32 v70,2013-08-06 13:44:00,
2013-08-06 09:49:00,74.0,51.2,30.44,NNE,22,7.0,10.0,45,0.00,,,0.00,Weather View 32 v70,2013-08-06 13:49:00,
2013-08-06 09:54:00,73.0,50.3,30.44,North,360,5.0,9.0,45,0.00,,,0.00,Weather View 32 v70,2013-08-06 13:54:00,
2013-08-06 09:59:00,75.0,50.9,30.45,WNW,292,2.0,9.0,43,0.00,,,0.00,Weather View 32 v70,2013-08-06 13:59:00,
2013-08-06 10:04:00,73.0,50.3,30.45,SW,225,2.0,9.0,45,0.00,,,0.00,Weather View 32 v70,2013-08-06 14:04:00,
2013-08-06 10:09:00,73.0,50.9,30.45,WNW,292,9.0,9.0,46,0.00,,,0.00,Weather View 32 v70,2013-08-06 14:09:00,
2013-08-06 10:14:00,73.0,50.3,30.45,East,90,4.0,10.0,45,0.00,,,0.00,Weather View 32 v70,2013-08-06 14:14:00,
2013-08-06 10:19:00,73.0,50.3,30.44,WNW,292,6.0,10.0,45,0.00,,,0.00,Weather View 32 v70,2013-08-06 14:19:00,
2013-08-06 10:24:00,72.0,50.6,30.44,WNW,292,0.0,10.0,47,0.00,,,0.00,Weather View 32 v70,2013-08-06 14:24:00,
2013-08-06 10:29:00,74.0,51.2,30.44,North,360,4.0,10.0,45,0.00,,,0.00,Weather View 32 v70,2013-08-06 14:29:00,
2013-08-06 10:34:00,75.0,50.3,30.44,NW,315,4.0,10.0,42,0.00,,,0.00,Weather View 32 v70,2013-08-06 14:34:00,
2013-08-06 10:39:00,74.0,50.0,30.45,NNE,22,2.0,10.0,43,0.00,,,0.00,Weather View 32 v70,2013-08-06 14:39:00,
2013-08-06 10:44:00,74.0,49.4,30.46,NNW,337,5.0,10.0,42,0.00,,,0.00,Weather View 32 v70,2013-08-06 14:44:00,
2013-08-06 10:49:00,74.0,50.0,30.45,NW,315,8.0,10.0,43,0.00,,,0.00,Weather View 32 v70,2013-08-06 14:49:00,
2013-08-06 10:54:00,74.0,51.2,30.45,NE,45,6.0,10.0,45,0.00,,,0.00,Weather View 32 v70,2013-08-06 14:54:00,
2013-08-06 10:59:00,73.0,49.1,30.46,WSW,247,1.0,14.0,43,0.00,,,0.00,Weather View 32 v70,2013-08-06 14:59:00,
2013-08-06 11:04:00,72.0,48.2,30.44,SSE,157,2.0,14.0,43,0.00,,,0.00,Weather View 32 v70,2013-08-06 15:04:00,
2013-08-06 11:09:00,74.0,50.0,30.44,SW,225,2.0,14.0,43,0.00,,,0.00,Weather View 32 v70,2013-08-06 15:09:00,
2013-08-06 11:14:00,74.0,50.0,30.44,West,270,7.0,14.0,43,0.00,,,0.00,Weather View 32 v70,2013-08-06 15:14:00,
2013-08-06 11:19:00,75.0,49.6,30.44,NNE,22,4.0,14.0,41,0.00,,,0.00,Weather View 32 v70,2013-08-06 15:19:00,
2013-08-06 11:24:00,72.0,48.2,30.44,NW,315,7.0,14.0,43,0.00,,,0.00,Weather View 32 v70,2013-08-06 15:24:00,
2013-08-06 11:29:00,74.0,50.0,30.44,WNW,292,6.0,14.0,43,0.00,,,0.00,Weather View 32 v70,2013-08-06 15:29:00,
2013-08-06 11:34:00,74.0,50.0,30.44,NNW,337,8.0,14.0,43,0.00,,,0.00,Weather View 32 v70,2013-08-06 15:34:00,
2013-08-06 11:39:00,73.0,49.7,30.43,WNW,292,3.0,14.0,44,0.00,,,0.00,Weather View 32 v70,2013-08-06 15:39:00,
2013-08-06 11:44:00,75.0,50.9,30.43,NW,315,4.0,14.0,43,0.00,,,0.00,Weather View 32 v70,2013-08-06 15:44:00,
2013-08-06 11:49:00,76.0,51.2,30.43,NNW,337,9.0,14.0,42,0.00,,,0.00,Weather View 32 v70,2013-08-06 15:49:00,
2013-08-06 11:54:00,74.0,50.0,30.44,NNW,337,4.0,14.0,43,0.00,,,0.00,Weather View 32 v70,2013-08-06 15:54:00,
2013-08-06 11:59:00,76.0,50.5,30.44,West,270,6.0,12.0,41,0.00,,,0.00,Weather View 32 v70,2013-08-06 15:59:00,
2013-08-06 12:05:00,75.0,49.6,30.45,NNW,337,6.0,12.0,41,0.00,,,0.00,Weather View 32 v70,2013-08-06 16:05:00,
2013-08-06 12:10:00,74.0,50.0,30.45,West,270,1.0,12.0,43,0.00,,,0.00,Weather View 32 v70,2013-08-06 16:10:00,
2013-08-06 12:15:00,74.0,50.0,30.44,WNW,292,9.0,12.0,43,0.00,,,0.00,Weather View 32 v70,2013-08-06 16:15:00,
2013-08-06 12:20:00,75.0,50.9,30.43,NW,315,2.0,12.0,43,0.00,,,0.00,Weather View 32 v70,2013-08-06 16:20:00,
2013-08-06 12:25:00,75.0,50.3,30.44,NNE,22,13.0,13.0,42,0.00,,,0.00,Weather View 32 v70,2013-08-06 16:25:00,
2013-08-06 12:30:00,75.0,49.6,30.44,NW,315,6.0,13.0,41,0.00,,,0.00,Weather View 32 v70,2013-08-06 16:30:00,
2013-08-06 12:35:00,76.0,50.5,30.43,West,270,7.0,13.0,41,0.00,,,0.00,Weather View 32 v70,2013-08-06 16:35:00,
2013-08-06 12:40:00,76.0,50.5,30.44,WSW,247,1.0,13.0,41,0.00,,,0.00,Weather View 32 v70,2013-08-06 16:40:00,
2013-08-06 12:45:00,78.0,50.3,30.44,WNW,292,2.0,13.0,38,0.00,,,0.00,Weather View 32 v70,2013-08-06 16:45:00,
2013-08-06 12:50:00,76.0,51.2,30.44,West,270,3.0,13.0,42,0.00,,,0.00,Weather View 32 v70,2013-08-06 16:50:00,
2013-08-06 12:55:00,77.0,51.4,30.44,NW,315,9.0,13.0,41,0.00,,,0.00,Weather View 32 v70,2013-08-06 16:55:00,
2013-08-06 13:00:00,76.0,51.2,30.44,SSW,202,6.0,13.0,42,0.00,,,0.00,Weather View 32 v70,2013-08-06 17:00:00,
2013-08-06 13:05:00,76.0,51.8,30.44,WNW,292,7.0,13.0,43,0.00,,,0.00,Weather View 32 v70,2013-08-06 17:05:00,
2013-08-06 13:10:00,76.0,49.9,30.44,NE,45,2.0,13.0,40,0.00,,,0.00,Weather View 32 v70,2013-08-06 17:10:00,
2013-08-06 13:15:00,77.0,52.1,30.44,South,180,2.0,13.0,42,0.00,,,0.00,Weather View 32 v70,2013-08-06 17:15:00,
2013-08-06 13:20:00,75.0,51.5,30.45,SW,225,6.0,13.0,44,0.00,,,0.00,Weather View 32 v70,2013-08-06 17:20:00,
2013-08-06 13:25:00,74.0,51.2,30.45,SW,225,6.0,13.0,45,0.00,,,0.00,Weather View 32 v70,2013-08-06 17:25:00,
2013-08-06 13:28:00,75.0,52.2,30.45,SSE,157,7.0,11.0,45,0.00,,,0.00,Weather View 32 v70,2013-08-06 17:28:00,
2013-08-06 13:33:00,75.0,52.2,30.45,SSW,202,6.0,10.0,45,0.00,,,0.00,Weather View 32 v70,2013-08-06 17:33:00,
2013-08-06 13:38:00,73.0,51.5,30.44,SSE,157,2.0,12.0,47,0.00,,,0.00,Weather View 32 v70,2013-08-06 17:38:00,
2013-08-06 13:43:00,73.0,52.1,30.43,SW,225,7.0,12.0,48,0.00,,,0.00,Weather View 32 v70,2013-08-06 17:43:00,
2013-08-06 13:48:00,74.0,51.8,30.44,SSW,202,12.0,12.0,46,0.00,,,0.00,Weather View 32 v70,2013-08-06 17:48:00,
2013-08-06 13:53:00,73.0,52.1,30.43,SW,225,10.0,12.0,48,0.00,,,0.00,Weather View 32 v70,2013-08-06 17:53:00,
2013-08-06 13:58:00,73.0,53.2,30.42,South,180,17.0,17.0,50,0.00,,,0.00,Weather View 32 v70,2013-08-06 17:58:00,
2013-08-06 14:03:00,72.0,52.3,30.42,SSW,202,8.0,17.0,50,0.00,,,0.00,Weather View 32 v70,2013-08-06 18:03:00,
2013-08-06 14:08:00,73.0,52.1,30.42,SW,225,9.0,17.0,48,0.00,,,0.00,Weather View 32 v70,2013-08-06 18:08:00,
2013-08-06 14:13:00,74.0,53.0,30.43,SSW,202,6.0,17.0,48,0.00,,,0.00,Weather View 32 v70,2013-08-06 18:13:00,
2013-08-06 14:18:00,74.0,53.6,30.43,SW,225,9.0,17.0,49,0.00,,,0.00,Weather View 32 v70,2013-08-06 18:18:00,
2013-08-06 14:23:00,74.0,54.1,30.44,South,180,6.0,17.0,50,0.00,,,0.00,Weather View 32 v70,2013-08-06 18:23:00,
2013-08-06 14:28:00,74.0,53.0,30.44,SSW,202,9.0,17.0,48,0.00,,,0.00,Weather View 32 v70,2013-08-06 18:28:00,
2013-08-06 14:33:00,74.0,54.1,30.43,SSW,202,3.0,17.0,50,0.00,,,0.00,Weather View 32 v70,2013-08-06 18:33:00,
2013-08-06 14:38:00,74.0,53.0,30.43,WSW,247,1.0,17.0,48,0.00,,,0.00,Weather View 32 v70,2013-08-06 18:38:00,
2013-08-06 14:43:00,75.0,53.9,30.44,SW,225,4.0,17.0,48,0.00,,,0.00,Weather View 32 v70,2013-08-06 18:43:00,
2013-08-06 14:48:00,74.0,54.1,30.44,SSW,202,4.0,17.0,50,0.00,,,0.00,Weather View 32 v70,2013-08-06 18:48:00,
2013-08-06 14:53:00,74.0,54.1,30.44,SW,225,7.0,17.0,50,0.00,,,0.00,Weather View 32 v70,2013-08-06 18:53:00,
2013-08-06 14:58:00,74.0,54.1,30.44,SSW,202,10.0,17.0,50,0.00,,,0.00,Weather View 32 v70,2013-08-06 18:58:00,
2013-08-06 15:03:00,74.0,52.4,30.44,SSW,202,9.0,15.0,47,0.00,,,0.00,Weather View 32 v70,2013-08-06 19:03:00,
2013-08-06 15:08:00,76.0,54.2,30.44,SSW,202,1.0,15.0,47,0.00,,,0.00,Weather View 32 v70,2013-08-06 19:08:00,
2013-08-06 15:13:00,75.0,53.3,30.44,South,180,7.0,15.0,47,0.00,,,0.00,Weather View 32 v70,2013-08-06 19:13:00,
2013-08-06 15:18:00,75.0,53.9,30.44,WNW,292,2.0,15.0,48,0.00,,,0.00,Weather View 32 v70,2013-08-06 19:18:00,
2013-08-06 15:23:00,77.0,54.0,30.44,SW,225,5.0,13.0,45,0.00,,,0.00,Weather View 32 v70,2013-08-06 19:23:00,
2013-08-06 15:28:00,77.0,54.0,30.44,South,180,10.0,13.0,45,0.00,,,0.00,Weather View 32 v70,2013-08-06 19:28:00,
2013-08-06 15:33:00,75.0,53.9,30.44,South,180,15.0,15.0,48,0.00,,,0.00,Weather View 32 v70,2013-08-06 19:33:00,
2013-08-06 15:38:00,74.0,54.1,30.45,SSW,202,6.0,15.0,50,0.00,,,0.00,Weather View 32 v70,2013-08-06 19:38:00,
2013-08-06 15:43:00,76.0,53.7,30.44,SSW,202,8.0,15.0,46,0.00,,,0.00,Weather View 32 v70,2013-08-06 19:43:00,
2013-08-06 15:48:00,74.0,53.6,30.44,SSW,202,12.0,15.0,49,0.00,,,0.00,Weather View 32 v70,2013-08-06 19:48:00,
2013-08-06 15:53:00,75.0,55.0,30.44,South,180,5.0,15.0,50,0.00,,,0.00,Weather View 32 v70,2013-08-06 19:53:00,
2013-08-06 15:58:00,74.0,54.1,30.44,South,180,5.0,15.0,50,0.00,,,0.00,Weather View 32 v70,2013-08-06 19:58:00,
2013-08-06 16:03:00,76.0,54.8,30.44,North,360,3.0,15.0,48,0.00,,,0.00,Weather View 32 v70,2013-08-06 20:03:00,
2013-08-06 16:08:00,76.0,52.4,30.45,SSE,157,4.0,16.0,44,0.00,,,0.00,Weather View 32 v70,2013-08-06 20:08:00,
2013-08-06 16:13:00,76.0,51.8,30.45,South,180,7.0,16.0,43,0.00,,,0.00,Weather View 32 v70,2013-08-06 20:13:00,
2013-08-06 16:18:00,77.0,52.7,30.44,NW,315,2.0,16.0,43,0.00,,,0.00,Weather View 32 v70,2013-08-06 20:18:00,
2013-08-06 16:23:00,76.0,51.8,30.44,WNW,292,10.0,16.0,43,0.00,,,0.00,Weather View 32 v70,2013-08-06 20:23:00,
2013-08-06 16:28:00,76.0,53.1,30.44,SSW,202,7.0,16.0,45,0.00,,,0.00,Weather View 32 v70,2013-08-06 20:28:00,
2013-08-06 16:32:00,76.0,53.1,30.44,SW,225,1.0,16.0,45,0.00,,,0.00,Weather View 32 v70,2013-08-06 20:32:00,
2013-08-06 16:37:00,76.0,52.4,30.45,WNW,292,8.0,16.0,44,0.00,,,0.00,Weather View 32 v70,2013-08-06 20:37:00,
2013-08-06 16:42:00,76.0,51.8,30.44,SSW,202,2.0,16.0,43,0.00,,,0.00,Weather View 32 v70,2013-08-06 20:42:00,
2013-08-06 16:47:00,76.0,51.8,30.45,WSW,247,7.0,16.0,43,0.00,,,0.00,Weather View 32 v70,2013-08-06 20:47:00,
2013-08-06 16:52:00,77.0,52.7,30.45,WSW,247,9.0,16.0,43,0.00,,,0.00,Weather View 32 v70,2013-08-06 20:52:00,
2013-08-06 16:57:00,76.0,51.8,30.45,WSW,247,3.0,16.0,43,0.00,,,0.00,Weather View 32 v70,2013-08-06 20:57:00,
2013-08-06 17:02:00,76.0,51.8,30.44,SW,225,13.0,16.0,43,0.00,,,0.00,Weather View 32 v70,2013-08-06 21:02:00,
2013-08-06 17:07:00,75.0,51.5,30.45,West,270,4.0,16.0,44,0.00,,,0.00,Weather View 32 v70,2013-08-06 21:07:00,
2013-08-06 17:12:00,74.0,51.2,30.45,SSW,202,13.0,16.0,45,0.00,,,0.00,Weather View 32 v70,2013-08-06 21:12:00,
2013-08-06 17:17:00,73.0,50.9,30.43,SSW,202,10.0,16.0,46,0.00,,,0.00,Weather View 32 v70,2013-08-06 21:17:00,
2013-08-06 17:22:00,73.0,50.9,30.44,SW,225,12.0,16.0,46,0.00,,,0.00,Weather View 32 v70,2013-08-06 21:22:00,
2013-08-06 17:27:00,73.0,50.9,30.44,West,270,6.0,16.0,46,0.00,,,0.00,Weather View 32 v70,2013-08-06 21:27:00,
2013-08-06 17:32:00,73.0,51.5,30.44,SSW,202,4.0,16.0,47,0.00,,,0.00,Weather View 32 v70,2013-08-06 21:32:00,
2013-08-06 17:37:00,73.0,51.5,30.44,SW,225,6.0,16.0,47,0.00,,,0.00,Weather View 32 v70,2013-08-06 21:37:00,
2013-08-06 17:42:00,73.0,50.9,30.44,West,270,2.0,16.0,46,0.00,,,0.00,Weather View 32 v70,2013-08-06 21:42:00,
2013-08-06 17:47:00,72.0,50.6,30.44,SSW,202,4.0,16.0,47,0.00,,,0.00,Weather View 32 v70,2013-08-06 21:47:00,
2013-08-06 17:52:00,72.0,50.6,30.44,West,270,5.0,16.0,47,0.00,,,0.00,Weather View 32 v70,2013-08-06 21:52:00,
2013-08-06 17:57:00,73.0,50.3,30.44,SSW,202,8.0,16.0,45,0.00,,,0.00,Weather View 32 v70,2013-08-06 21:57:00,
2013-08-06 18:02:00,73.0,49.7,30.44,South,180,6.0,16.0,44,0.00,,,0.00,Weather View 32 v70,2013-08-06 22:02:00,
2013-08-06 18:07:00,72.0,49.4,30.44,South,180,2.0,16.0,45,0.00,,,0.00,Weather View 32 v70,2013-08-06 22:07:00,
2013-08-06 18:12:00,72.0,49.4,30.44,SSW,202,1.0,15.0,45,0.00,,,0.00,Weather View 32 v70,2013-08-06 22:12:00,
2013-08-06 18:17:00,71.0,49.7,30.44,South,180,4.0,15.0,47,0.00,,,0.00,Weather View 32 v70,2013-08-06 22:17:00,
2013-08-06 18:22:00,72.0,50.6,30.44,South,180,7.0,15.0,47,0.00,,,0.00,Weather View 32 v70,2013-08-06 22:22:00,
2013-08-06 18:27:00,71.0,49.1,30.44,East,90,2.0,15.0,46,0.00,,,0.00,Weather View 32 v70,2013-08-06 22:27:00,
2013-08-06 18:32:00,72.0,50.0,30.44,West,270,5.0,14.0,46,0.00,,,0.00,Weather View 32 v70,2013-08-06 22:32:00,
2013-08-06 18:37:00,72.0,50.0,30.44,SSW,202,6.0,14.0,46,0.00,,,0.00,Weather View 32 v70,2013-08-06 22:37:00,
2013-08-06 18:42:00,72.0,50.0,30.44,South,180,5.0,14.0,46,0.00,,,0.00,Weather View 32 v70,2013-08-06 22:42:00,
2013-08-06 18:47:00,72.0,50.0,30.45,WNW,292,3.0,14.0,46,0.00,,,0.00,Weather View 32 v70,2013-08-06 22:47:00,
2013-08-06 18:52:00,71.0,49.7,30.44,SE,135,4.0,14.0,47,0.00,,,0.00,Weather View 32 v70,2013-08-06 22:52:00,
2013-08-06 18:57:00,71.0,51.4,30.44,WNW,292,2.0,14.0,50,0.00,,,0.00,Weather View 32 v70,2013-08-06 22:57:00,
2013-08-06 19:02:00,70.0,51.0,30.44,West,270,2.0,14.0,51,0.00,,,0.00,Weather View 32 v70,2013-08-06 23:02:00,
2013-08-06 19:07:00,71.0,51.9,30.44,NE,45,0.0,14.0,51,0.00,,,0.00,Weather View 32 v70,2013-08-06 23:07:00,
2013-08-06 19:12:00,70.0,51.5,30.44,SW,225,6.0,14.0,52,0.00,,,0.00,Weather View 32 v70,2013-08-06 23:12:00,
2013-08-06 19:17:00,69.0,51.1,30.44,SW,225,2.0,11.0,53,0.00,,,0.00,Weather View 32 v70,2013-08-06 23:17:00,
2013-08-06 19:22:00,69.0,51.1,30.44,WSW,247,4.0,11.0,53,0.00,,,0.00,Weather View 32 v70,2013-08-06 23:22:00,
2013-08-06 19:27:00,69.0,51.6,30.43,SW,225,6.0,7.0,54,0.00,,,0.00,Weather View 32 v70,2013-08-06 23:27:00,
2013-08-06 19:35:00,68.0,51.2,30.43,SW,225,4.0,7.0,55,0.00,,,0.00,Weather View 32 v70,2013-08-06 23:35:00,
2013-08-06 20:13:00,66.0,49.8,30.43,WSW,247,3.0,7.0,56,0.00,,,0.00,Weather View 32 v70,2013-08-07 00:13:00,
2013-08-06 20:18:00,66.0,50.8,30.43,SSW,202,1.0,6.0,58,0.00,,,0.00,Weather View 32 v70,2013-08-07 00:18:00,
2013-08-06 20:23:00,66.0,50.8,30.43,SW,225,5.0,6.0,58,0.00,,,0.00,Weather View 32 v70,2013-08-07 00:23:00,
2013-08-06 20:38:00,65.0,50.3,30.43,SW,225,7.0,7.0,59,0.00,,,0.00,Weather View 32 v70,2013-08-07 00:38:00,
2013-08-06 20:43:00,65.0,50.7,30.43,SW,225,4.0,7.0,60,0.00,,,0.00,Weather View 32 v70,2013-08-07 00:43:00,
2013-08-06 20:48:00,64.0,49.8,30.42,South,180,5.0,7.0,60,0.00,,,0.00,Weather View 32 v70,2013-08-07 00:48:00,
2013-08-06 20:53:00,64.0,51.1,30.43,South,180,2.0,7.0,63,0.00,,,0.00,Weather View 32 v70,2013-08-07 00:53:00,
2013-08-06 20:58:00,62.0,51.3,30.43,SSW,202,2.0,7.0,68,0.00,,,0.00,Weather View 32 v70,2013-08-07 00:58:00,
2013-08-06 21:03:00,63.0,51.8,30.43,SSW,202,0.0,7.0,67,0.00,,,0.00,Weather View 32 v70,2013-08-07 01:03:00,
2013-08-06 21:08:00,62.0,52.1,30.43,SSW,202,1.0,7.0,70,0.00,,,0.00,Weather View 32 v70,2013-08-07 01:08:00,
2013-08-06 21:13:00,62.0,52.5,30.43,SSW,202,0.0,7.0,71,0.00,,,0.00,Weather View 32 v70,2013-08-07 01:13:00,
2013-08-06 21:18:00,61.0,51.5,30.42,SSW,202,0.0,7.0,71,0.00,,,0.00,Weather View 32 v70,2013-08-07 01:18:00,
2013-08-06 21:23:00,61.0,52.3,30.42,West,270,0.0,7.0,73,0.00,,,0.00,Weather View 32 v70,2013-08-07 01:23:00,
2013-08-06 21:28:00,61.0,53.0,30.42,SSW,202,0.0,7.0,75,0.00,,,0.00,Weather View 32 v70,2013-08-07 01:28:00,
2013-08-06 21:33:00,61.0,53.4,30.42,SSW,202,1.0,7.0,76,0.00,,,0.00,Weather View 32 v70,2013-08-07 01:33:00,
2013-08-06 21:38:00,61.0,54.1,30.40,SSW,202,1.0,7.0,78,0.00,,,0.00,Weather View 32 v70,2013-08-07 01:38:00,
2013-08-06 21:43:00,61.0,54.8,30.40,SSW,202,1.0,5.0,80,0.00,,,0.00,Weather View 32 v70,2013-08-07 01:43:00,
2013-08-06 21:48:00,61.0,54.8,30.41,SSW,202,2.0,5.0,80,0.00,,,0.00,Weather View 32 v70,2013-08-07 01:48:00,
2013-08-06 21:53:00,60.0,54.5,30.41,SSW,202,3.0,3.0,82,0.00,,,0.00,Weather View 32 v70,2013-08-07 01:53:00,
2013-08-06 21:58:00,60.0,55.1,30.41,SSW,202,4.0,4.0,84,0.00,,,0.00,Weather View 32 v70,2013-08-07 01:58:00,
2013-08-06 22:03:00,60.0,55.5,30.39,SSE,157,2.0,4.0,85,0.00,,,0.00,Weather View 32 v70,2013-08-07 02:03:00,
2013-08-06 22:08:00,59.0,54.5,30.38,SSE,157,0.0,4.0,85,0.00,,,0.00,Weather View 32 v70,2013-08-07 02:08:00,
2013-08-06 22:13:00,59.0,55.4,30.38,SSE,157,2.0,4.0,88,0.00,,,0.00,Weather View 32 v70,2013-08-07 02:13:00,
2013-08-06 22:18:00,58.0,54.5,30.39,SSE,157,0.0,4.0,88,0.00,,,0.00,Weather View 32 v70,2013-08-07 02:18:00,
2013-08-06 22:23:00,58.0,54.1,30.39,SSE,157,0.0,4.0,87,0.00,,,0.00,Weather View 32 v70,2013-08-07 02:23:00,
2013-08-06 22:28:00,58.0,53.8,30.38,SSE,157,0.0,4.0,86,0.00,,,0.00,Weather View 32 v70,2013-08-07 02:28:00,
2013-08-06 22:33:00,58.0,54.5,30.38,SSE,157,0.0,4.0,88,0.00,,,0.00,Weather View 32 v70,2013-08-07 02:33:00,
2013-08-06 22:38:00,58.0,54.5,30.38,SSE,157,0.0,4.0,88,0.00,,,0.00,Weather View 32 v70,2013-08-07 02:38:00,
2013-08-06 22:43:00,57.0,53.8,30.38,SSE,157,0.0,4.0,89,0.00,,,0.00,Weather View 32 v70,2013-08-07 02:43:00,
2013-08-06 22:48:00,58.0,54.8,30.38,SSE,157,0.0,4.0,89,0.00,,,0.00,Weather View 32 v70,2013-08-07 02:48:00,
2013-08-06 22:53:00,58.0,55.1,30.38,SSE,157,0.0,4.0,90,0.00,,,0.00,Weather View 32 v70,2013-08-07 02:53:00,
2013-08-06 22:58:00,57.0,54.4,30.38,SSE,157,0.0,4.0,91,0.00,,,0.00,Weather View 32 v70,2013-08-07 02:58:00,
2013-08-06 23:03:00,57.0,54.4,30.38,SSE,157,0.0,2.0,91,0.00,,,0.00,Weather View 32 v70,2013-08-07 03:03:00,
2013-08-06 23:08:00,57.0,54.4,30.37,SSE,157,0.0,2.0,91,0.00,,,0.00,Weather View 32 v70,2013-08-07 03:08:00,
2013-08-06 23:13:00,57.0,55.0,30.37,SSE,157,0.0,2.0,93,0.00,,,0.00,Weather View 32 v70,2013-08-07 03:13:00,
2013-08-06 23:18:00,57.0,54.7,30.37,SSE,157,0.0,1.0,92,0.00,,,0.00,Weather View 32 v70,2013-08-07 03:18:00,
2013-08-06 23:23:00,57.0,55.0,30.37,SSW,202,3.0,3.0,93,0.00,,,0.00,Weather View 32 v70,2013-08-07 03:23:00,
2013-08-06 23:28:00,57.0,55.0,30.37,SSW,202,4.0,4.0,93,0.00,,,0.00,Weather View 32 v70,2013-08-07 03:28:00,
2013-08-06 23:34:00,57.0,55.3,30.37,SSW,202,3.0,4.0,94,0.00,,,0.00,Weather View 32 v70,2013-08-07 03:34:00,
2013-08-06 23:39:00,57.0,55.3,30.38,SSE,157,1.0,4.0,94,0.00,,,0.00,Weather View 32 v70,2013-08-07 03:39:00,
2013-08-06 23:44:00,57.0,55.3,30.38,SSE,157,2.0,4.0,94,0.00,,,0.00,Weather View 32 v70,2013-08-07 03:44:00,
2013-08-06 23:49:00,56.0,54.6,30.38,SSE,157,1.0,4.0,95,0.00,,,0.00,Weather View 32 v70,2013-08-07 03:49:00,
2013-08-06 23:54:00,57.0,55.3,30.38,SSE,157,0.0,4.0,94,0.00,,,0.00,Weather View 32 v70,2013-08-07 03:54:00,
2013-08-06 23:59:00,56.0,54.6,30.38,SSE,157,2.0,4.0,95,0.00,,,0.00,Weather View 32 v70,2013-08-07 03:59:00,